Simultaneous Nadir Overpasses (SNOs) Predictions

Prediction of SNOs between GOES-14 and AQUA Satellite Orbit:

Table of predicted SNOs for the next 14.0 days since TLE Epoch: 11/10/2018
Index Date Time (GOES-14) GOES-14 Lat,Lon AQUA Lat,Lon Distance(km) Time Diff (sec)
1 11/10/2018 08:47:50 0.09,-104.16 0.82,-107.63 395.10 80
2 11/12/2018 08:35:37 0.10,-104.15 0.23,-104.66 58.81 80
3 11/14/2018 08:20:45 0.10,-104.15 -0.42,-101.71 277.58 80
4 11/14/2018 20:42:09 -0.08,-104.02 -0.66,-106.90 327.32 80
5 11/16/2018 20:32:36 -0.08,-104.02 -0.06,-103.93 9.66 80
6 11/18/2018 20:20:23 -0.08,-104.02 0.54,-100.97 347.01 80
7 11/19/2018 08:41:40 0.06,-104.17 0.47,-106.14 223.79 80
8 11/21/2018 08:26:47 0.07,-104.17 -0.13,-103.17 112.98 80
9 11/21/2018 20:48:10 -0.04,-104.01 -0.99,-108.36 495.20 80
10 11/23/2018 08:14:35 0.07,-104.17 -0.80,-100.22 449.53 80
11 11/23/2018 20:35:58 -0.05,-104.01 -0.32,-105.41 158.25 80




NCC Satellite Simultaneous Nadir Overpasses (SNOs) Prediction Service
